WORLDVIEW-3 (WV-3)

Last updated on Sun Jun 21 2026 00:02:52 GMT+0000 (Coordinated Universal Time)

1 40115U 14048A 26171.46899535 .00000601 00000+0 76637-4 0 9993 2 40115 97.8566 246.2566 0000722 21.7214 338.4031 14.85026395642392
UTC large
Height (km)
Speed (km/s)
/
Latitude / Longitude
Inclination (degrees)
Orbital Period (minutes)
Azimuth
Elevation
Range (km)
Doppler Factor

Next 0 passes for location: London (51.5072 / 0.1276)

No passes found over London.
WORLDVIEW-3 (WV-3)